World > North America > United States > Illinois

Hourly Lake Sara, IL Regional Weather

Feedback E-mail the Weather

Quick WX

Lake Sara, IL Weather Maps

°F °C°F °C
Lake Sara Weather Map
UTC Time: 7/2/2022, 06:09
Your Time:

Lake Sara, IL Regional Weather

Expires:202207020700;;534611
ASUS43 KLOT 020608
RWRIL 

ILLINOIS REGIONAL WEATHER ROUNDUP
NATIONAL WEATHER SERVICE CHICAGO/ROMEOVILLE IL
100 AM CDT SAT JUL 02 2022

NOTE: "FAIR" INDICATES FEW OR NO CLOUDS BELOW 12,000 FEET WITH NO
SIGNIFICANT WEATHER AND/OR OBSTRUCTIONS TO VISIBILITY.

* THESE STATIONS ARE NOT UNDER NWS QUALITY CONTROL. THEY ALSO MAY NOT
  REPORT WEATHER SUCH AS PRECIPITATION OR FOG.


ILZ064>066-069>071-074>076-080>082-084>086-088>090-092>094-020700-
SOUTH-CENTRAL ILLINOIS
  
CITY           SKY/WX    TMP DP  RH WIND       PRES   REMARKS
CARBONDALE     PTCLDY    75  72  90 CALM      29.96R                  
6HR MIN TEMP:  75; 6HR MAX TEMP:  88;                                

EFFINGHAM*     MOCLDY    72  70  93 N5        30.01S                  
MARION         MOCLDY    75  74  95 CALM      29.97S                  
MT. VERNON     MOCLDY   N/A N/A N/A CALM      29.96F                  
CENTRALIA*     MOCLDY    79  72  79 CALM      29.97S HX  82           
SALEM*         MOCLDY    80  72  76 N7        29.98R HX  83           
METROPOLIS*    CLEAR     73  72  97 CALM      29.97S FOG              
$$


SKY/WX - Weather  TMP - Temperature  DP - Dew Point  RH - Humidity
WIND - Wind Direction/Speed PRES - Barometric Pressure VSB - Visibility
WCI - Wind Chill Index E13G22 Wind - East Wind 13 mph/Gusts of 22 mph

Trending Headlines

Lake Sara Radar Loop



Lake Sara Quick Facts


National Two Day Weather Forecast


E-mail the Lake Sara Weather Forecast

Voice your opinion or tell us about page issues...